CST,Max TemperatureF,Mean TemperatureF,Min TemperatureF,Max Dew PointF,MeanDew PointF,Min DewpointF,Max Humidity, Mean Humidity, Min Humidity, Max Sea Level PressureIn, Mean Sea Level PressureIn, Min Sea Level PressureIn, Max VisibilityMiles, Mean VisibilityMiles, Min VisibilityMiles, Max Wind SpeedMPH, Mean Wind SpeedMPH, Max Gust SpeedMPH,PrecipitationIn, CloudCover, Events, WindDirDegrees
2013-1-1,29,22,15,22,17,13,93,85,72,30.19,30.11,30.00,10,10,7,10,8,,0.00,2,,220
2013-1-2,32,24,17,27,24,13,90,83,78,30.24,30.07,29.99,10,10,4,18,12,26,0.00,8,Snow,304
2013-1-3,29,22,14,25,17,11,93,81,65,30.34,30.27,30.18,10,10,4,17,9,22,0.00,4,Snow,272
2013-1-4,38,25,12,24,16,8,85,67,41,30.17,30.09,30.00,10,10,10,10,6,,0.00,0,,229
2013-1-5,39,28,16,27,18,13,90,75,59,30.21,30.05,29.95,10,10,10,25,11,33,0.00,1,,308
2013-1-6,43,29,15,26,21,12,90,71,48,30.22,30.11,29.90,10,10,10,21,8,25,0.00,0,,224
2013-1-7,46,35,24,26,23,20,89,67,36,29.99,29.93,29.86,10,10,10,20,8,25,0.00,0,,230
2013-1-8,49,34,19,32,26,18,93,74,49,30.14,29.87,29.75,10,10,10,20,7,26,0.00,1,,247
2013-1-9,55,38,22,30,26,18,86,67,33,30.32,30.22,30.15,10,10,10,21,9,29,0.00,0,,219
2013-1-10,44,40,35,36,31,21,100,77,42,30.17,29.85,29.54,10,9,4,22,15,28,0.03,4,Rain,177
2013-1-11,38,28,17,36,28,12,100,92,77,29.73,29.49,29.38,10,6,1,30,15,38,0.01,8,Snow,266
2013-1-12,16,12,8,11,5,2,81,75,65,30.12,29.99,29.74,10,10,5,28,21,37,0.00,4,Snow,304
2013-1-13,20,12,5,8,4,0,84,72,56,30.24,30.17,30.10,10,10,10,17,11,21,0.00,4,,301
2013-1-14,28,14,-1,11,3,-5,85,68,36,30.33,30.26,30.22,10,10,10,16,7,18,0.00,0,,233
2013-1-15,34,21,8,22,8,3,92,66,28,30.22,30.07,29.89,10,10,10,16,9,21,0.00,1,,227
2013-1-16,51,40,26,31,28,23,94,66,35,30.24,30.00,29.85,10,10,5,31,14,38,0.00,2,Snow,297
2013-1-17,50,36,23,29,26,21,96,73,40,30.40,30.30,30.14,10,10,1,8,4,,0.03,2,,257
2013-1-18,61,44,28,25,21,15,75,49,17,30.13,29.93,29.85,10,10,10,20,10,23,0.00,0,,254
2013-1-19,50,32,14,28,23,10,83,58,37,30.33,30.07,29.84,10,10,10,23,12,32,0.00,0,,314
2013-1-20,22,16,11,11,8,5,85,73,57,30.40,30.33,30.24,10,10,5,16,6,20,0.00,4,Snow,2
2013-1-21,15,9,3,4,-4,-11,81,58,38,30.40,30.32,30.25,10,10,5,21,13,25,0.00,7,Snow,335
2013-1-22,29,19,9,14,10,4,85,72,49,30.26,30.17,30.08,10,10,4,17,7,18,0.00,4,Snow,169
2013-1-23,22,14,5,15,10,0,88,76,58,30.45,30.26,30.08,10,10,10,18,8,23,0.00,0,,350
2013-1-24,21,12,2,11,0,-8,85,62,34,30.45,30.21,30.01,10,10,10,26,11,31,0.00,0,,150
2013-1-25,48,34,20,24,20,12,93,67,34,30.17,30.12,30.06,10,10,7,15,8,18,0.00,1,,337
2013-1-26,59,38,18,31,23,16,93,67,26,30.16,29.98,29.85,10,9,5,22,11,29,0.00,1,,163
2013-1-27,45,40,34,43,36,31,97,86,62,29.85,29.75,29.67,10,7,0,12,9,,0.23,5,Fog-Rain,174
2013-1-28,39,32,26,35,31,26,97,93,80,29.79,29.73,29.65,10,6,0,15,6,18,0.01,3,Fog,325
2013-1-29,37,28,19,32,27,17,96,85,60,29.86,29.73,29.65,10,10,3,28,13,34,0.00,8,Snow,339
2013-1-30,20,14,8,18,11,4,93,81,67,29.91,29.87,29.82,10,8,2,28,20,39,0.00,6,Snow,323
2013-1-31,8,2,-3,4,-5,-10,84,72,59,30.30,30.17,29.91,10,10,4,28,13,34,0.00,4,,314